Weather reports worldwide

Advertisment
München-Flughafen, Germany (10870): temperature & dewpoint: 24.10.2020 12:00:00 - 30.10.2020 12:00:00 (CET)München-Flughafen, Germany (10870): temperature 5cm & temperature -5cm: 24.10.2020 12:00:00 - 30.10.2020 12:00:00 (CET)München-Flughafen, Germany (10870): temperature -20cm & temperature -100cm: 24.10.2020 12:00:00 - 30.10.2020 12:00:00 (CET)München-Flughafen, Germany (10870): wind speed & gusts: 24.10.2020 12:00:00 - 30.10.2020 12:00:00 (CET)München-Flughafen, Germany (10870): wind direction: 24.10.2020 12:00:00 - 30.10.2020 12:00:00 (CET)München-Flughafen, Germany (10870): reduced air pressure: 24.10.2020 12:00:00 - 30.10.2020 12:00:00 (CET)München-Flughafen, Germany (10870): visibility: 24.10.2020 12:00:00 - 30.10.2020 12:00:00 (CET)München-Flughafen, Germany (10870): sunshine duration: 24.10.2020 12:00:00 - 30.10.2020 12:00:00 (CET)München-Flughafen, Germany (10870): precipitation: 24.10.2020 12:00:00 - 30.10.2020 12:00:00 (CET)
Date & Time tt [°C] td [°C] tt 5cm [°C] tt -5cm [°C] tt -20cm [°C] tt -100cm [°C] ff [km/h] ff [kn] fx [km/h] fx [kn] dd ppp [hPa] vv [km] sd [min] rr [mm]
30.10.2020 12:00:00 12,8 9,1 12,6 10,9 9,6 11,7 22 12 35 19 W 1024,1 10 0 0,0
30.10.2020 11:00:00 12,6 9,0 12,3 10,5 9,5 11,7 26 14 37 20 WSW 1024,4 70 0 0,0
30.10.2020 10:00:00 12,1 8,9 11,8 10,1 9,5 11,7 27 15 41 22 WSW 1024,1 70 0 0,0
30.10.2020 09:00:00 11,8 8,8 11,4 9,7 9,4 11,7 31 17 41 22 WSW 1023,8 70 0 0,0
30.10.2020 08:00:00 11,2 8,7 10,7 9,3 9,4 11,7 26 14 35 19 WSW 1023,6 10 0 0,0
30.10.2020 07:00:00 10,8 8,7 10,1 9,1 9,4 11,8 16 9 31 17 WSW 1023,3 10 0 0,0
30.10.2020 06:00:00 10,7 8,7 9,8 9,0 9,4 11,8 24 13 35 19 WSW 1022,8 10 0 0,0
30.10.2020 05:00:00 9,9 8,6 9,3 8,9 9,4 11,8 15 8 21 11 SW 1023,2 35 0 0,0
30.10.2020 04:00:00 9,7 8,8 9,1 8,9 9,4 11,8 15 8 29 16 SW 1022,9 25 0 0,4
30.10.2020 03:00:00 9,4 8,5 8,9 8,8 9,4 11,8 16 9 22 12 SW 1023,3 10 0 0,2
30.10.2020 02:00:00 9,0 8,5 8,7 8,7 9,4 11,8 13 7 21 11 SW 1023,6 10 0 0,4
30.10.2020 01:00:00 9,0 8,2 8,5 8,7 9,4 11,8 14 7 24 13 SW 1023,9 20 0 0,5
30.10.2020 00:00:00 9,0 8,1 8,5 8,7 9,4 11,8 15 8 21 11 SW 1024,2 10 0 0,7
29.10.2020 23:00:00 9,0 8,1 8,5 8,7 9,5 11,8 15 8 21 12 WSW 1024,4 10 0 0,3
29.10.2020 22:00:00 9,2 7,9 8,5 8,8 9,5 11,8 18 10 26 14 WSW 1024,4 15 0 0,3
29.10.2020 21:00:00 9,5 8,6 8,9 8,9 9,5 11,8 16 9 22 12 WSW 1024,0 20 0 0,6
29.10.2020 20:00:00 9,3 8,5 8,7 8,8 9,5 11,8 13 7 18 10 WSW 1023,5 10 0 0,1
29.10.2020 19:00:00 9,0 8,2 8,3 8,8 9,5 11,8 10 6 18 10 SW 1023,3 30 0 0,1
29.10.2020 18:00:00 8,8 7,8 8,1 9,0 9,5 11,8 9 5 13 7 WSW 1023,0 10 0 0,3
29.10.2020 17:00:00 9,5 7,2 8,6 9,3 9,5 11,8 9 5 25 14 W 1022,1 10 0 0,0
29.10.2020 16:00:00 10,7 6,6 10,1 9,7 9,4 11,8 15 8 29 15 W 1021,6 10 0 0,0
29.10.2020 15:00:00 10,7 7,7 9,8 9,9 9,3 11,8 13 7 28 15 W 1021,1 30 0 0,0
29.10.2020 14:00:00 9,7 6,8 8,6 9,9 9,2 11,9 18 10 46 25 W 1020,9 10 0 0,3
29.10.2020 13:00:00 10,3 7,4 10,2 10,5 9,1 11,9 26 14 46 25 W 1020,7 9 28 0,0
29.10.2020 12:00:00 9,7 7,3 10,3 9,6 9,0 11,9 19 10 51 28 W 1020,7 30 4 2,0
29.10.2020 11:00:00 11,0 8,8 11,0 9,8 9,0 11,9 31 17 60 32 WNW 1020,0 4,0 1 0,1
29.10.2020 10:00:00 9,7 8,2 9,2 8,8 8,9 11,9 22 12 29 16 WSW 1019,5 10 0 0,7
29.10.2020 09:00:00 9,1 7,5 8,4 8,6 8,9 11,9 23 12 40 22 WSW 1019,1 15 0 1,7
29.10.2020 08:00:00 9,8 8,1 8,9 8,6 8,9 11,9 25 14 39 21 SW 1018,4 13 0 0,7
29.10.2020 07:00:00 10,4 7,7 8,9 8,5 8,8 11,9 21 12 33 18 SW 1017,2 20 0 0,5
29.10.2020 06:00:00 10,6 7,3 8,9 8,4 8,8 11,9 26 14 38 21 WSW 1016,8 10 0 0,2
29.10.2020 05:00:00 9,9 7,5 8,6 8,2 8,8 11,9 16 9 26 14 SSW 1016,7 10 0 0,1
29.10.2020 04:00:00 9,7 7,3 8,9 8,1 8,8 11,9 11 6 22 12 SSW 1016,6 10 0 0,0
29.10.2020 03:00:00 9,8 7,4 8,7 8,1 8,8 12,0 18 10 29 16 SW 1017,2 50 0 0,0
29.10.2020 02:00:00 9,9 7,2 8,8 8,0 8,8 12,0 22 12 31 17 SW 1017,6 10 0 0,0
29.10.2020 01:00:00 9,6 7,5 8,5 7,9 8,8 12,0 19 11 34 18 SSW 1017,9 35 0 0,7
29.10.2020 00:00:00 9,5 7,2 8,2 7,4 8,8 12,0 23 12 36 19 WSW 1018,4 30 0 0,5
28.10.2020 23:00:00 6,7 5,4 5,7 7,3 8,9 12,0 4 2 8 4 - 1017,7 10 0 0,0
28.10.2020 22:00:00 7,3 5,5 5,6 7,5 8,9 12,0 5 3 8 4 S 1018,1 10 0 0,0
28.10.2020 21:00:00 9,5 6,3 7,1 7,7 9,0 12,0 5 3 9 5 S 1017,8 10 0 0,0
28.10.2020 20:00:00 9,0 5,9 7,0 7,8 9,0 12,0 4 2 22 12 SW 1018,0 75 0 0,0
28.10.2020 19:00:00 10,4 6,5 8,7 8,5 8,9 12,0 20 11 34 18 SW 1017,8 75 0 0,0
28.10.2020 18:00:00 10,9 6,9 9,5 9,2 8,7 12,0 26 14 36 19 WSW 1017,1 10 0 0,0
28.10.2020 17:00:00 12,1 7,5 10,9 10,1 8,5 12,1 19 10 37 20 SW 1016,2 80 12 0,0
28.10.2020 16:00:00 13,6 7,7 12,8 11,1 8,2 12,1 18 10 31 17 SW 1015,9 80 32 0,0
28.10.2020 15:00:00 13,8 7,9 13,8 11,0 7,9 12,1 19 11 39 21 WSW 1015,8 80 42 0,0
28.10.2020 14:00:00 14,3 8,6 15,3 10,5 7,6 12,1 15 8 27 15 SW 1015,4 70 15 0,0
28.10.2020 13:00:00 12,0 6,3 12,2 9,5 7,4 12,1 15 8 23 12 SW 1016,2 10 10 0,0
28.10.2020 12:00:00 10,2 6,4 10,9 8,0 7,2 12,1 16 9 29 16 SSW 1016,6 10 1 0,1
28.10.2020 11:00:00 9,4 5,9 8,9 7,2 7,1 12,1 11 6 16 9 S 1016,6 10 0 0,0
28.10.2020 10:00:00 7,3 4,0 8,1 6,2 7,1 12,1 5 3 8 5 SE 1016,6 10 0 0,0
28.10.2020 09:00:00 6,1 3,4 6,2 4,9 7,1 12,1 9 5 16 9 S 1016,6 10 0 0,0
28.10.2020 08:00:00 5,0 3,0 4,8 4,1 7,2 12,1 5 3 11 6 - 1015,7 10 4 0,0
28.10.2020 07:00:00 3,2 2,7 3,4 3,5 7,3 12,1 4 2 9 5 E 1015,6 80 0 0,0
28.10.2020 06:00:00 2,9 2,3 2,5 2,7 7,6 12,1 8 4 9 5 E 1015,6 10 0 0,0
28.10.2020 05:00:00 -0,8 -1,2 -0,6 2,2 7,8 12,1 4 2 5 3 - 1016,8 10 0 0,0
28.10.2020 04:00:00 -0,6 -0,6 -3,6 2,2 8,0 12,1 2 1 8 4 - 1016,3 10 0 0,0
28.10.2020 03:00:00 0,1 0,1 -2,9 2,5 8,3 12,2 2 1 5 3 - 1016,5 10 0 0,0
28.10.2020 02:00:00 0,3 0,0 -3,1 3,1 8,5 12,2 2 1 5 3 - 1016,6 10 0 0,0
28.10.2020 01:00:00 2,5 2,0 -2,0 3,7 8,7 12,2 4 2 5 3 - 1016,1 10 0 0,0
28.10.2020 00:00:00 3,5 2,7 -0,3 4,2 9,0 12,2 2 1 8 4 SW 1016,0 10 0 0,0
27.10.2020 23:00:00 3,2 2,2 0,9 4,8 9,2 12,2 8 4 12 6 S 1016,1 10 0 0,0
27.10.2020 22:00:00 4,6 3,2 2,7 5,2 9,4 12,2 2 1 9 5 N 1016,0 50 0 0,0
27.10.2020 21:00:00 4,6 3,5 1,5 5,8 9,5 12,2 5 3 13 7 SSE 1015,8 55 0 0,0
27.10.2020 20:00:00 5,1 3,9 2,8 6,5 9,6 12,2 11 6 16 9 SSE 1015,3 10 0 0,0
27.10.2020 19:00:00 5,5 4,4 2,9 7,4 9,7 12,2 9 5 16 8 SSE 1015,2 10 0 0,0
27.10.2020 18:00:00 6,7 5,5 4,8 8,5 9,6 12,2 11 6 16 8 SE 1014,9 70 0 0,0
27.10.2020 17:00:00 8,2 6,0 6,3 9,8 9,5 12,2 9 5 16 9 SSE 1014,1 10 23 0,0
27.10.2020 16:00:00 9,5 5,7 9,4 10,9 9,2 12,2 13 7 16 9 S 1014,0 10 3 0,0
27.10.2020 15:00:00 9,9 5,1 11,0 12,2 8,9 12,2 4 2 9 5 WSW 1013,6 75 56 0,0
27.10.2020 14:00:00 10,7 4,4 13,2 11,1 8,7 12,2 9 5 18 10 SSW 1013,4 10 42 0,0
27.10.2020 13:00:00 9,5 5,0 10,4 10,3 8,5 12,2 9 5 21 12 W 1013,6 10 14 0,0
27.10.2020 12:00:00 8,4 5,2 9,5 9,2 8,4 12,3 13 7 18 10 SSW 1013,9 10 2 0,0
27.10.2020 11:00:00 7,8 5,5 9,2 8,4 8,4 12,3 11 6 21 11 S 1014,1 10 8 0,0
27.10.2020 10:00:00 6,3 4,7 7,4 6,8 8,4 12,3 12 7 16 9 SSE 1014,0 55 8 0,0
27.10.2020 09:00:00 5,2 3,9 5,0 6,1 8,5 12,3 8 4 12 6 S 1013,7 35 0 0,0
27.10.2020 08:00:00 4,6 3,6 4,5 5,8 8,5 12,3 5 3 9 5 S 1013,7 70 0 0,0
27.10.2020 07:00:00 4,3 3,5 4,1 5,7 8,6 12,3 4 2 8 4 SSE 1013,2 10 0 0,0
27.10.2020 06:00:00 4,1 3,4 3,8 5,7 8,7 12,3 2 1 8 4 S 1013,0 60 0 0,0
27.10.2020 05:00:00 4,3 3,3 3,9 5,7 8,8 12,3 5 3 15 8 SSE 1012,5 50 0 0,1
27.10.2020 04:00:00 4,3 3,3 4,1 5,8 8,9 12,3 10 5 18 10 S 1012,3 50 0 0,0
27.10.2020 03:00:00 4,3 3,4 4,1 5,9 9,0 12,3 11 6 18 10 S 1012,4 10 0 0,4
27.10.2020 02:00:00 4,2 3,4 4,1 6,0 9,1 12,3 11 6 18 10 SSW 1012,8 10 0 0,8
27.10.2020 01:00:00 4,2 3,6 4,2 6,1 9,3 12,3 13 7 16 9 SSW 1012,9 20 0 1,0
27.10.2020 00:00:00 4,3 3,6 4,2 6,2 9,4 12,3 9 5 18 10 SSW 1012,5 10 0 1,7
26.10.2020 23:00:00 4,3 3,6 4,1 6,3 9,6 12,3 11 6 21 11 SW 1012,7 10 0 1,6
26.10.2020 22:00:00 4,4 3,5 4,2 6,5 9,7 12,3 16 9 29 16 SW 1012,5 10 0 0,8
26.10.2020 21:00:00 4,5 3,6 4,3 6,7 9,9 12,3 21 11 35 19 SW 1012,0 10 0 1,8
26.10.2020 20:00:00 4,9 4,0 4,7 7,1 10,0 12,3 22 12 31 17 SW 1011,6 13 0 1,2
26.10.2020 19:00:00 5,5 4,5 5,3 7,6 10,1 12,3 21 11 29 16 SW 1010,8 15 0 0,8
26.10.2020 18:00:00 6,3 5,1 6,0 8,1 10,2 12,3 21 11 28 15 WSW 1010,3 10 0 0,2
26.10.2020 17:00:00 7,1 5,9 6,7 8,5 10,2 12,3 14 8 24 13 WSW 1009,3 15 0 0,4
26.10.2020 16:00:00 8,1 6,6 7,6 9,0 10,2 12,3 9 5 28 15 WNW 1008,9 10 0 0,6
26.10.2020 15:00:00 8,2 6,4 7,7 9,3 10,2 12,3 18 10 34 18 WNW 1007,8 10 0 0,3
26.10.2020 14:00:00 9,1 7,4 8,5 9,6 10,2 12,3 15 8 26 14 W 1007,0 10 0 0,1
26.10.2020 13:00:00 9,2 8,3 9,1 9,6 10,2 12,3 16 9 27 15 W 1006,4 6 0 0,0
26.10.2020 12:00:00 9,0 8,2 9,0 9,5 10,2 12,3 15 8 31 17 W 1005,2 6 0 0,0
26.10.2020 11:00:00 8,9 8,0 8,9 9,4 10,2 12,3 15 8 24 13 W 1005,8 6 0 0,0
26.10.2020 10:00:00 8,1 7,6 8,7 9,1 10,2 12,3 5 3 18 10 W 1005,3 4,0 0 0,0
26.10.2020 09:00:00 7,6 7,1 8,0 9,0 10,2 12,3 11 6 15 8 W 1005,0 3,5 0 0,0
26.10.2020 08:00:00 7,4 7,2 7,8 8,7 10,3 12,3 4 2 13 7 ENE 1003,6 2,0 0 0,0
26.10.2020 07:00:00 7,0 6,9 7,3 8,7 10,4 12,3 8 4 18 10 ENE 1003,2 1,2 0 0,0
26.10.2020 06:00:00 7,1 7,0 7,3 8,7 10,4 12,3 12 6 18 10 ENE 1003,8 0,8 0 0,0
26.10.2020 05:00:00 7,2 7,2 7,4 8,9 10,5 12,3 15 8 24 13 E 1003,9 0,8 0 0,0
26.10.2020 04:00:00 7,6 7,5 7,9 9,1 10,5 12,3 8 4 15 8 E 1005,3 0,8 0 0,0
26.10.2020 03:00:00 8,0 8,0 8,2 9,3 10,5 12,3 12 7 22 12 E 1004,9 0,8 0 0,0
26.10.2020 02:00:00 8,3 8,3 8,5 9,3 10,6 12,3 13 7 16 9 E 1005,8 0,5 0 0,0
26.10.2020 01:00:00 8,3 8,3 8,5 9,4 10,6 12,3 9 5 16 8 SE 1006,6 0,6 0 0,0
26.10.2020 00:00:00 7,9 7,9 8,2 9,5 10,7 12,3 9 5 11 6 SSE 1007,4 0,6 0 0,0
25.10.2020 23:00:00 8,5 8,5 8,7 9,6 10,7 12,3 9 5 16 9 S 1008,3 0,4 0 0,0
25.10.2020 22:00:00 8,7 8,7 8,9 9,7 10,8 12,3 5 3 9 5 SSE 1008,7 0,3 0 0,0
25.10.2020 21:00:00 8,6 8,6 8,8 9,6 10,9 12,3 8 4 15 8 E 1008,5 0,4 0 0,0
25.10.2020 20:00:00 8,8 8,8 9,0 9,5 11,0 12,3 3 2 5 3 NE 1008,5 0,3 0 0,0
25.10.2020 19:00:00 8,0 8,0 7,9 9,2 11,0 12,3 4 2 13 7 E 1008,9 0,8 0 0,0
25.10.2020 18:00:00 8,0 7,7 4,4 10,1 10,9 12,3 5 3 9 5 SE 1009,2 10 0 0,0
25.10.2020 17:00:00 9,9 8,7 7,1 11,7 10,8 12,3 4 2 16 9 - 1009,0 10 43 0,0
25.10.2020 16:00:00 11,6 9,5 11,9 13,2 10,5 12,3 16 9 21 11 E 1008,7 10 60 0,0
25.10.2020 15:00:00 12,5 9,4 13,8 13,9 10,2 12,3 13 7 21 11 E 1008,9 10 60 0,0
25.10.2020 14:00:00 12,9 9,4 15,4 14,0 9,8 12,3 12 7 18 10 ENE 1009,4 60 60 0,0
25.10.2020 13:00:00 13,1 9,5 16,1 13,1 9,5 12,3 11 6 18 10 E 1010,1 10 60 0,0
25.10.2020 12:00:00 12,0 8,3 14,9 11,9 9,3 12,3 15 8 20 11 E 1011,1 10 60 0,0
25.10.2020 11:00:00 10,9 8,7 13,3 9,9 9,3 12,3 11 6 16 9 E 1012,0 10 51 0,0
25.10.2020 10:00:00 6,1 5,4 7,9 7,7 9,3 12,3 4 2 5 3 - 1013,8 4,0 50 0,0
25.10.2020 09:00:00 5,1 4,7 6,2 6,1 9,5 12,3 3 1 11 6 NNE 1014,5 1,6 36 0,0
25.10.2020 08:00:00 2,6 2,6 3,2 5,3 9,7 12,3 5 3 8 4 ENE 1015,4 0,6 0 0,0
25.10.2020 07:00:00 2,0 2,0 1,8 5,3 9,9 12,2 5 3 11 6 E 1015,5 0,2 0 0,0
25.10.2020 06:00:00 1,7 1,7 1,6 5,3 10,1 12,2 9 5 11 6 E 1015,9 0,6 0 0,0
25.10.2020 05:00:00 1,4 1,3 1,2 5,4 10,3 12,2 0 0 5 3 N 1016,3 5 0 0,0
25.10.2020 04:00:00 2,1 2,1 0,6 5,6 10,6 12,2 2 1 4 2 - 1016,4 10 0 0,0
25.10.2020 03:00:00 1,9 1,9 0,5 5,8 10,9 12,2 2 1 4 2 - 1016,7 10 0 0,0
25.10.2020 02:00:00 2,9 2,8 0,5 6,3 11,1 12,2 3 2 8 4 NNW 1017,2 12 0 0,0
25.10.2020 01:00:00 - - - - - - - - - - - - - - -
25.10.2020 00:00:00 3,3 3,1 1,5 7,3 11,6 12,2 0 0 4 2 N 1018,4 10 0 0,0
24.10.2020 23:00:00 4,2 2,7 1,6 7,9 11,9 12,2 4 2 5 3 - 1018,9 10 0 0,0
24.10.2020 22:00:00 5,6 5,0 3,1 8,6 12,1 12,2 4 2 5 3 WSW 1019,1 10 0 0,0
24.10.2020 21:00:00 8,2 7,7 5,4 9,4 12,3 12,2 3 1 12 6 WNW 1018,5 25 0 0,0
24.10.2020 20:00:00 9,9 8,6 8,3 10,0 12,4 12,2 9 5 16 9 S 1018,3 40 0 0,0
24.10.2020 19:00:00 9,3 8,3 5,9 10,9 12,5 12,2 9 5 16 9 S 1018,8 10 0 0,0
24.10.2020 18:00:00 11,2 9,1 9,0 12,0 12,5 12,2 11 6 15 8 S 1018,1 60 4 0,0
24.10.2020 17:00:00 13,3 10,0 12,6 13,2 12,4 12,1 9 5 16 9 S 1017,7 60 29 0,0
24.10.2020 16:00:00 13,6 10,2 13,5 13,6 12,3 12,1 11 6 21 11 SW 1018,0 10 0 0,0
24.10.2020 15:00:00 14,3 10,0 14,5 14,3 12,2 12,1 13 7 21 12 WSW 1018,2 50 5 0,0
24.10.2020 14:00:00 14,4 9,9 16,0 14,4 12,1 12,1 11 6 20 11 WSW 1018,6 50 1 0,0
24.10.2020 13:00:00 13,7 10,1 15,3 14,1 12,0 12,1 13 7 18 10 WSW 1019,1 40 0 0,0
24.10.2020 12:00:00 13,8 9,5 15,1 13,6 11,9 12,1 9 5 15 8 W 1019,3 10 0 0,0

tt = temperature
td = dewpoint
tt 5cm = temperature 5cm
tt -5cm = temperature -5cm
tt -20cm = temperature -20cm
tt -100cm = temperature -100cm
ff = wind speed
fx = gusts
dd = wind direction
ppp = reduced air pressure
vv = visibility
sd = sunshine duration
rr = precipitation

Next stations